Toluca Jose Maria, Mexico

5:09 PM CST on December 12, 2017 (GMT -0600)
Lic Adolfo Lopez Mateos International

Weather History for MMTO - October, 2013

Change the Weather History Date:

Thursday, October 24, 2013

  Actual Average Record
Temperature  
Mean Temperature 54 °F -  
Max Temperature 62 °F 68 °F 73 °F (1997)
Min Temperature 46 °F 40 °F 23 °F (1999)
Degree Days  
Heating Degree Days 11    
Growing Degree Days 4 (Base 50)    
Moisture  
Dew Point 42 °F    
Average Humidity 70    
Maximum Humidity 87    
Minimum Humidity 42    
Precipitation  
Precipitation 0.00 in - - ()
Sea Level Pressure  
Sea Level Pressure 30.24 in    
Wind  
Wind Speed 3 mph ()    
Max Wind Speed 13 mph    
Max Gust Speed -    
Visibility 6.5 miles    
Events      
Averages and records for this station are not official NWS values.
T = Trace of Precipitation, MM = Missing Value Source: Averaged Metar Reports

Daily Weather History Graph

Daily Weather History Graph

Search for Another Location

Airport or City:

Trip Planner

Search our weather history database for the weather conditions in past years. The results will help you decide how hot, cold, wet, or windy it might be!

Date:

Astronomy

Oct. 24, 2013 Rise Set
Actual Time 7:35 AM CDT 7:08 PM CDT
Civil Twilight 7:13 AM CDT 7:31 PM CDT
Nautical Twilight 6:47 AM CDT 7:56 PM CDT
Astronomical Twilight 6:21 AM CDT 8:22 PM CDT
Moon 11:50 PM CDT (10/24) 12:21 PM CDT (10/24)
Length of Visible Light 12h 17m
Length of Day
11h 32m
Waning Gibbous, 71% of the Moon is Illuminated
Oct 24
Waning Gibbous
Oct 26
Last Quarter
Nov 3
New
Nov 9
First Quarter
Nov 17
Full

Hourly Weather History & Observations

Time (CDT) Temp. Windchill Dew Point Humidity Pressure Visibility Wind Dir Wind Speed Gust Speed Precip Events Conditions
12:45 AM 50.0 °F - 46.4 °F 87% 29.92 in 6.0 mi Calm Calm - N/A   Mostly Cloudy
1:45 AM 50.0 °F - 46.4 °F 87% 30.38 in 6.0 mi Calm Calm - N/A   Overcast
2:45 AM 50.0 °F - 46.4 °F 87% 30.37 in 6.0 mi Calm Calm - N/A   Mostly Cloudy
3:45 AM 50.0 °F - 46.4 °F 87% 29.90 in 6.0 mi Calm Calm - N/A   Mostly Cloudy
4:45 AM 48.2 °F - 44.6 °F 87% 30.35 in 5.0 mi WNW 4.6 mph - N/A   Mostly Cloudy
5:45 AM 48.2 °F - 44.6 °F 87% 30.35 in 6.0 mi Calm Calm - N/A   Mostly Cloudy
6:45 AM 48.2 °F - 44.6 °F 87% 29.94 in 6.0 mi West 3.5 mph - N/A   Mostly Cloudy
7:46 AM 48.2 °F - 44.6 °F 87% 30.38 in 6.0 mi WNW 4.6 mph - N/A   Overcast
8:48 AM 50.0 °F - 44.6 °F 82% 30.40 in 6.0 mi Calm Calm - N/A   Overcast
9:49 AM 51.8 °F - 44.6 °F 76% 29.95 in 6.0 mi Calm Calm - N/A   Overcast
10:48 AM 53.6 °F - 44.6 °F 72% 30.43 in 6.0 mi Calm Calm - N/A   Overcast
11:47 AM 57.2 °F - 44.6 °F 63% 30.43 in 7.0 mi NNE 5.8 mph - N/A   Overcast
12:52 PM 59.0 °F - 41.0 °F 51% 29.90 in 7.0 mi North 4.6 mph - N/A   Overcast
1:45 PM 59.0 °F - 37.4 °F 45% 30.38 in 7.0 mi ENE 8.1 mph - N/A   Overcast
2:44 PM 60.8 °F - 39.2 °F 45% 30.36 in 7.0 mi Calm Calm - N/A   Overcast
3:41 PM 60.8 °F - 39.2 °F 45% 29.85 in 7.0 mi ENE 9.2 mph - N/A   Overcast
4:40 PM 62.6 °F - 39.2 °F 42% 30.34 in 7.0 mi East 9.2 mph - N/A   Mostly Cloudy
5:46 PM 59.0 °F - 37.4 °F 45% 30.34 in 7.0 mi East 12.7 mph - N/A   Mostly Cloudy
6:41 PM 57.2 °F - 41.0 °F 55% 29.91 in 7.0 mi East 6.9 mph - N/A   Mostly Cloudy
7:42 PM 53.6 °F - 41.0 °F 62% 30.36 in 7.0 mi ENE 8.1 mph - N/A   Mostly Cloudy
8:43 PM 51.8 °F - 41.0 °F 67% 30.39 in 7.0 mi NW 4.6 mph - N/A   Mostly Cloudy
9:46 PM 50.0 °F - 41.0 °F 71% 30.21 in 7.0 mi West 5.8 mph - N/A   Mostly Cloudy
10:42 PM 46.4 °F 42.9 °F 39.2 °F 76% 30.44 in 7.0 mi West 6.9 mph - N/A   Mostly Cloudy
11:45 PM 46.4 °F - 39.2 °F 76% 30.44 in 7.0 mi Calm Calm - N/A   Mostly Cloudy